CST,Max TemperatureF,Mean TemperatureF,Min TemperatureF,Max Dew PointF,MeanDew PointF,Min DewpointF,Max Humidity, Mean Humidity, Min Humidity, Max Sea Level PressureIn, Mean Sea Level PressureIn, Min Sea Level PressureIn, Max VisibilityMiles, Mean VisibilityMiles, Min VisibilityMiles, Max Wind SpeedMPH, Mean Wind SpeedMPH, Max Gust SpeedMPH,PrecipitationIn, CloudCover, Events, WindDirDegrees
2014-1-1,70,48,26,33,26,23,89,55,18,30.29,30.07,29.98,10,10,10,21,6,28,0.00,0,,224
2014-1-2,50,38,25,29,26,22,87,62,39,30.52,30.40,30.30,10,10,10,14,5,16,0.00,0,,54
2014-1-3,67,44,20,32,27,18,91,62,26,30.30,30.09,29.91,10,10,10,13,3,,0.00,0,,159
2014-1-4,67,48,29,38,29,24,86,51,21,29.91,29.84,29.74,10,10,10,29,6,34,0.00,0,,241
2014-1-5,62,44,26,27,19,14,72,52,23,30.38,30.22,29.83,10,10,7,24,10,36,0.00,1,,11
2014-1-6,34,26,18,18,9,7,68,51,34,30.65,30.51,30.38,10,10,10,18,8,22,0.00,0,,68
2014-1-7,55,34,13,22,15,9,84,55,26,30.44,30.24,30.06,10,10,10,10,3,,0.00,0,,84
2014-1-8,70,48,27,34,28,19,77,58,18,30.10,30.03,29.95,10,10,10,16,3,23,0.00,1,,63
2014-1-9,59,42,25,32,27,22,85,63,32,30.18,30.05,29.93,10,10,10,8,4,,0.00,0,,342
2014-1-10,69,54,40,38,27,17,70,38,15,29.97,29.90,29.84,10,10,7,30,10,39,0.00,1,,249
2014-1-11,74,52,30,24,22,19,66,32,14,30.22,30.08,29.98,10,10,10,20,9,24,0.00,0,,228
2014-1-12,78,54,30,30,23,19,75,36,14,30.02,29.92,29.81,10,10,10,29,8,33,0.00,0,,241
2014-1-13,66,49,32,20,12,8,45,24,11,30.30,30.16,29.98,10,10,7,18,9,24,0.00,0,,271
2014-1-14,63,45,27,23,16,9,52,30,18,30.44,30.22,30.09,10,10,7,21,6,28,0.00,0,,356
2014-1-15,61,42,22,26,21,17,82,50,24,30.48,30.31,30.06,10,10,10,9,3,,0.00,0,,199
2014-1-16,65,48,32,22,19,15,55,33,19,30.25,30.12,30.04,10,10,4,17,7,24,0.00,0,,360
2014-1-17,60,42,25,24,21,18,76,47,24,30.37,30.25,30.13,10,10,7,9,4,18,0.00,0,,49
2014-1-18,67,46,24,26,20,17,80,47,16,30.30,30.16,30.12,10,10,10,14,4,18,0.00,0,,300
2014-1-19,67,46,24,24,20,16,73,42,18,30.34,30.23,30.09,10,10,10,9,4,,0.00,0,,229
2014-1-20,74,55,36,21,18,15,50,25,11,30.40,30.10,30.02,10,10,7,21,9,25,0.00,0,,311
2014-1-21,63,44,25,20,17,14,67,37,17,30.51,30.37,30.17,10,10,7,10,5,,0.00,0,,213
2014-1-22,67,46,26,20,17,15,64,36,15,30.17,30.03,29.91,10,10,10,13,5,16,0.00,0,,340
2014-1-23,43,33,23,21,10,-14,53,36,17,30.72,30.41,30.06,10,10,10,23,10,26,0.00,2,,29
2014-1-24,49,32,16,11,0,-10,48,29,18,30.72,30.51,30.30,10,10,10,9,3,,0.00,0,,193
2014-1-25,66,46,27,21,17,11,52,33,16,30.29,30.16,30.02,10,10,7,12,4,,0.00,1,,345
2014-1-26,75,56,37,32,22,13,53,30,10,30.01,29.89,29.82,10,10,10,28,7,30,0.00,0,,271
2014-1-27,46,36,27,28,13,0,62,39,25,30.36,30.14,29.90,10,10,5,26,8,34,0.00,3,,40
2014-1-28,32,24,15,-1,-7,-9,41,25,18,30.46,30.34,30.14,10,10,10,14,7,17,0.00,2,,50
2014-1-29,55,33,11,13,4,-4,59,34,18,30.37,30.17,29.97,10,10,10,9,3,,0.00,0,,89
2014-1-30,80,53,26,27,18,8,53,31,14,29.95,29.84,29.77,10,10,5,32,6,41,0.00,0,,211
2014-1-31,77,60,42,33,28,21,50,32,19,29.88,29.79,29.72,10,10,7,26,7,32,0.00,0,,236